Time,TemperatureF,DewpointF,PressureIn,WindDirection,WindDirectionDegrees,WindSpeedMPH,WindSpeedGustMPH,Humidity,HourlyPrecipIn,Conditions,Clouds,dailyrainin,SoftwareType,DateUTC
2013-01-12 00:00:00,37.8,37.0,29.88,NNW,336,0.0,0.0,97,0.00,,,0.63,meteohub,2013-01-12 05:00:00,
2013-01-12 00:02:00,37.6,36.9,29.88,NNW,336,0.0,0.0,97,0.00,,,0.63,meteohub,2013-01-12 05:02:00,
2013-01-12 00:03:00,37.6,36.9,29.88,NNW,336,0.0,0.0,97,0.00,,,0.63,meteohub,2013-01-12 05:03:00,
2013-01-12 00:08:00,37.4,36.7,29.88,SW,226,0.0,0.0,97,0.00,,,0.00,meteohub,2013-01-12 05:08:00,
2013-01-12 00:13:00,37.6,36.9,29.88,SW,226,0.0,0.0,97,0.00,,,0.00,meteohub,2013-01-12 05:13:00,
2013-01-12 00:18:00,37.9,37.2,29.88,SW,236,0.0,0.0,97,0.00,,,0.00,meteohub,2013-01-12 05:18:00,
2013-01-12 00:23:00,37.8,37.0,29.88,SW,236,0.0,0.0,97,0.00,,,0.00,meteohub,2013-01-12 05:23:00,
2013-01-12 00:28:00,37.6,36.9,29.88,SW,236,0.0,0.0,97,0.00,,,0.00,meteohub,2013-01-12 05:28:00,
2013-01-12 00:33:00,37.6,36.9,29.88,SW,236,0.0,0.0,97,0.00,,,0.00,meteohub,2013-01-12 05:33:00,
2013-01-12 00:38:00,37.8,37.0,29.88,WSW,238,0.0,0.0,97,0.00,,,0.00,meteohub,2013-01-12 05:38:00,
2013-01-12 00:43:00,37.9,37.2,29.88,SW,232,0.0,0.0,97,0.00,,,0.00,meteohub,2013-01-12 05:43:00,
2013-01-12 00:48:00,38.3,37.6,29.88,SW,232,0.0,0.0,97,0.00,,,0.00,meteohub,2013-01-12 05:48:00,
2013-01-12 00:53:00,38.1,37.4,29.88,SW,232,0.0,0.0,97,0.00,,,0.00,meteohub,2013-01-12 05:53:00,
2013-01-12 00:58:00,37.9,37.2,29.88,SW,232,0.0,0.0,97,0.00,,,0.00,meteohub,2013-01-12 05:58:00,
2013-01-12 01:03:00,37.8,37.0,29.88,SW,232,0.0,0.0,97,0.00,,,0.00,meteohub,2013-01-12 06:03:00,
2013-01-12 01:08:00,37.8,37.0,29.87,SW,232,0.0,0.0,97,0.00,,,0.00,meteohub,2013-01-12 06:08:00,
2013-01-12 01:13:00,37.6,36.9,29.87,SW,232,0.0,0.0,97,0.00,,,0.00,meteohub,2013-01-12 06:13:00,
2013-01-12 01:19:00,37.2,36.5,29.87,SW,235,0.0,0.0,97,0.00,,,0.00,meteohub,2013-01-12 06:19:00,
2013-01-12 01:24:00,37.0,36.3,29.87,SW,236,0.0,0.0,97,0.00,,,0.00,meteohub,2013-01-12 06:24:00,
2013-01-12 01:29:00,36.9,36.1,29.88,WSW,237,0.0,0.0,97,0.00,,,0.00,meteohub,2013-01-12 06:29:00,
2013-01-12 01:34:00,36.7,36.0,29.88,SW,236,0.0,0.0,97,0.00,,,0.00,meteohub,2013-01-12 06:34:00,
2013-01-12 01:39:00,36.5,35.8,29.88,SW,224,0.0,0.0,97,0.00,,,0.00,meteohub,2013-01-12 06:39:00,
2013-01-12 01:44:00,36.5,35.8,29.88,SW,224,0.0,0.0,97,0.00,,,0.00,meteohub,2013-01-12 06:44:00,
2013-01-12 01:49:00,37.2,36.5,29.88,WSW,246,0.0,0.0,97,0.00,,,0.00,meteohub,2013-01-12 06:49:00,
2013-01-12 01:54:00,37.4,36.7,29.88,WSW,246,0.0,0.0,97,0.00,,,0.00,meteohub,2013-01-12 06:54:00,
2013-01-12 01:59:00,37.0,36.3,29.88,WSW,245,0.0,0.0,97,0.00,,,0.00,meteohub,2013-01-12 06:59:00,
2013-01-12 02:04:00,37.2,36.5,29.88,WNW,291,0.0,0.0,97,0.00,,,0.00,meteohub,2013-01-12 07:04:00,
2013-01-12 02:09:00,37.0,36.3,29.88,WNW,288,0.0,0.0,97,0.00,,,0.00,meteohub,2013-01-12 07:09:00,
2013-01-12 02:14:00,36.9,36.1,29.88,West,273,0.0,0.0,97,0.00,,,0.00,meteohub,2013-01-12 07:14:00,
2013-01-12 02:19:00,37.6,37.0,29.88,West,278,1.0,0.0,98,0.00,,,0.00,meteohub,2013-01-12 07:19:00,
2013-01-12 02:24:00,37.8,37.2,29.88,West,263,0.0,0.0,98,0.00,,,0.00,meteohub,2013-01-12 07:24:00,
2013-01-12 02:30:00,37.6,37.0,29.88,West,263,0.0,1.0,98,0.00,,,0.00,meteohub,2013-01-12 07:30:00,
2013-01-12 02:35:00,37.2,36.5,29.89,West,271,1.0,1.0,97,0.00,,,0.00,meteohub,2013-01-12 07:35:00,
2013-01-12 02:40:00,36.9,36.1,29.89,West,273,0.0,1.0,97,0.00,,,0.00,meteohub,2013-01-12 07:40:00,
2013-01-12 02:45:00,36.3,35.6,29.89,WSW,253,1.0,1.0,97,0.00,,,0.00,meteohub,2013-01-12 07:45:00,
2013-01-12 02:50:00,36.3,35.6,29.89,WSW,258,0.0,1.0,97,0.00,,,0.00,meteohub,2013-01-12 07:50:00,
2013-01-12 02:55:00,36.5,35.8,29.89,West,259,0.0,1.0,97,0.00,,,0.00,meteohub,2013-01-12 07:55:00,
2013-01-12 03:00:00,36.7,36.0,29.90,SW,233,1.0,1.0,97,0.00,,,0.00,meteohub,2013-01-12 08:00:00,
2013-01-12 03:05:00,36.3,35.6,29.90,SSW,210,0.0,1.0,97,0.00,,,0.00,meteohub,2013-01-12 08:05:00,
2013-01-12 03:10:00,36.3,35.6,29.90,NW,316,2.0,2.0,97,0.00,,,0.00,meteohub,2013-01-12 08:10:00,
2013-01-12 03:15:00,37.6,37.0,29.90,SW,224,2.0,2.0,98,0.00,,,0.00,meteohub,2013-01-12 08:15:00,
2013-01-12 03:20:00,37.0,36.5,29.90,SW,219,0.0,3.0,98,0.00,,,0.00,meteohub,2013-01-12 08:20:00,
2013-01-12 03:25:00,37.0,36.5,29.90,SW,219,0.0,3.0,98,0.00,,,0.00,meteohub,2013-01-12 08:25:00,
2013-01-12 03:30:00,37.0,36.5,29.90,SW,219,0.0,3.0,98,0.00,,,0.00,meteohub,2013-01-12 08:30:00,
2013-01-12 03:35:00,36.7,36.0,29.90,SW,219,0.0,2.0,97,0.00,,,0.00,meteohub,2013-01-12 08:35:00,
2013-01-12 03:40:00,36.3,35.6,29.90,SW,222,0.0,0.0,97,0.00,,,0.00,meteohub,2013-01-12 08:40:00,
2013-01-12 03:45:00,36.0,35.2,29.90,SSW,204,1.0,0.0,97,0.00,,,0.00,meteohub,2013-01-12 08:45:00,
2013-01-12 03:50:00,36.0,35.2,29.90,South,170,0.0,2.0,97,0.00,,,0.00,meteohub,2013-01-12 08:50:00,
2013-01-12 03:55:00,36.3,35.6,29.90,SSE,158,1.0,2.0,97,0.00,,,0.00,meteohub,2013-01-12 08:55:00,
2013-01-12 04:00:00,36.3,35.6,29.90,West,271,1.0,2.0,97,0.00,,,0.00,meteohub,2013-01-12 09:00:00,
2013-01-12 04:05:00,35.8,35.1,29.90,SW,236,1.0,2.0,97,0.00,,,0.00,meteohub,2013-01-12 09:05:00,
2013-01-12 04:10:00,35.2,34.5,29.90,SW,228,1.0,1.0,97,0.00,,,0.00,meteohub,2013-01-12 09:10:00,
2013-01-12 04:15:00,35.2,34.5,29.90,SW,228,0.0,1.0,97,0.00,,,0.00,meteohub,2013-01-12 09:15:00,
2013-01-12 04:20:00,35.8,35.1,29.90,SW,222,0.0,1.0,97,0.00,,,0.00,meteohub,2013-01-12 09:20:00,
2013-01-12 04:25:00,36.1,35.4,29.90,SSW,203,1.0,1.0,97,0.00,,,0.00,meteohub,2013-01-12 09:25:00,
2013-01-12 04:30:00,36.7,36.1,29.90,North,7,1.0,2.0,98,0.00,,,0.00,meteohub,2013-01-12 09:30:00,
2013-01-12 04:35:00,37.2,36.7,29.90,West,274,1.0,2.0,98,0.00,,,0.00,meteohub,2013-01-12 09:35:00,
2013-01-12 04:40:00,36.9,36.3,29.90,WSW,242,0.0,2.0,98,0.00,,,0.00,meteohub,2013-01-12 09:40:00,
2013-01-12 04:45:00,36.9,36.3,29.90,WSW,242,0.0,2.0,98,0.00,,,0.00,meteohub,2013-01-12 09:45:00,
2013-01-12 04:50:00,36.9,36.3,29.89,NNW,328,1.0,2.0,98,0.00,,,0.00,meteohub,2013-01-12 09:50:00,
2013-01-12 04:55:00,37.0,36.5,29.90,NNW,328,0.0,2.0,98,0.00,,,0.00,meteohub,2013-01-12 09:55:00,
2013-01-12 05:00:00,37.0,36.3,29.90,NW,326,0.0,2.0,97,0.00,,,0.00,meteohub,2013-01-12 10:00:00,
2013-01-12 05:05:00,37.0,36.3,29.90,NW,326,0.0,2.0,97,0.00,,,0.00,meteohub,2013-01-12 10:05:00,
2013-01-12 05:10:00,36.9,36.1,29.90,SW,215,0.0,1.0,97,0.00,,,0.00,meteohub,2013-01-12 10:10:00,
2013-01-12 05:15:00,36.9,36.1,29.90,SW,215,0.0,2.0,97,0.00,,,0.00,meteohub,2013-01-12 10:15:00,
2013-01-12 05:20:00,36.9,36.1,29.89,SW,214,0.0,2.0,97,0.00,,,0.00,meteohub,2013-01-12 10:20:00,
2013-01-12 05:25:00,36.7,36.0,29.89,SW,215,0.0,2.0,97,0.00,,,0.00,meteohub,2013-01-12 10:25:00,
2013-01-12 05:30:00,36.7,36.0,29.90,SW,215,0.0,1.0,97,0.00,,,0.00,meteohub,2013-01-12 10:30:00,
2013-01-12 05:35:00,36.7,36.0,29.89,SW,215,0.0,1.0,97,0.00,,,0.00,meteohub,2013-01-12 10:35:00,
2013-01-12 05:40:00,36.3,35.6,29.89,SW,225,1.0,1.0,97,0.00,,,0.00,meteohub,2013-01-12 10:40:00,
2013-01-12 05:45:00,36.3,35.6,29.90,SW,236,0.0,1.0,97,0.00,,,0.00,meteohub,2013-01-12 10:45:00,
2013-01-12 05:50:00,36.0,35.2,29.90,SW,228,0.0,1.0,97,0.00,,,0.00,meteohub,2013-01-12 10:50:00,
2013-01-12 05:55:00,36.1,35.4,29.90,SW,228,0.0,1.0,97,0.00,,,0.00,meteohub,2013-01-12 10:55:00,
2013-01-12 06:00:00,36.3,35.6,29.90,SW,228,0.0,1.0,97,0.00,,,0.00,meteohub,2013-01-12 11:00:00,
2013-01-12 06:05:00,36.7,36.1,29.90,SW,232,0.0,1.0,98,0.00,,,0.00,meteohub,2013-01-12 11:05:00,
2013-01-12 06:10:00,36.9,36.3,29.90,SW,232,0.0,1.0,98,0.00,,,0.00,meteohub,2013-01-12 11:10:00,
2013-01-12 06:15:00,37.0,36.5,29.91,SW,233,1.0,1.0,98,0.00,,,0.00,meteohub,2013-01-12 11:15:00,
2013-01-12 06:20:00,37.0,36.5,29.91,SW,233,0.0,1.0,98,0.00,,,0.00,meteohub,2013-01-12 11:20:00,
2013-01-12 06:25:00,37.0,36.3,29.91,SW,232,0.0,1.0,97,0.00,,,0.00,meteohub,2013-01-12 11:25:00,
2013-01-12 06:30:00,37.0,36.3,29.90,SW,232,0.0,1.0,97,0.00,,,0.00,meteohub,2013-01-12 11:30:00,
2013-01-12 06:35:00,37.0,36.3,29.91,SW,231,0.0,1.0,97,0.00,,,0.00,meteohub,2013-01-12 11:35:00,
2013-01-12 06:40:00,37.0,36.3,29.91,SW,231,0.0,1.0,97,0.00,,,0.00,meteohub,2013-01-12 11:40:00,
2013-01-12 06:45:00,37.0,36.3,29.91,SW,229,0.0,1.0,97,0.00,,,0.00,meteohub,2013-01-12 11:45:00,
2013-01-12 06:50:00,37.2,36.5,29.91,SSW,211,0.0,0.0,97,0.00,,,0.00,meteohub,2013-01-12 11:50:00,
2013-01-12 06:55:00,37.0,36.3,29.92,SW,218,0.0,0.0,97,0.00,,,0.00,meteohub,2013-01-12 11:55:00,
2013-01-12 07:00:00,37.2,36.5,29.92,WSW,251,1.0,0.0,97,0.00,,,0.00,meteohub,2013-01-12 12:00:00,
2013-01-12 07:05:00,37.2,36.5,29.93,WSW,252,0.0,2.0,97,0.00,,,0.00,meteohub,2013-01-12 12:05:00,
2013-01-12 07:10:00,37.2,36.5,29.93,NNE,23,0.0,2.0,97,0.00,,,0.00,meteohub,2013-01-12 12:10:00,
2013-01-12 07:15:00,37.2,36.5,29.93,NNE,23,1.0,2.0,97,0.00,,,0.00,meteohub,2013-01-12 12:15:00,
2013-01-12 07:20:00,37.2,36.5,29.93,SSE,150,0.0,2.0,97,0.00,,,0.00,meteohub,2013-01-12 12:20:00,
2013-01-12 07:25:00,37.0,36.3,29.93,SSW,201,0.0,1.0,97,0.00,,,0.00,meteohub,2013-01-12 12:25:00,
2013-01-12 07:30:00,37.0,36.3,29.93,SSW,206,0.0,1.0,97,0.00,,,0.00,meteohub,2013-01-12 12:30:00,
2013-01-12 07:35:00,37.2,36.5,29.93,NNW,342,1.0,1.0,97,0.00,,,0.00,meteohub,2013-01-12 12:35:00,
2013-01-12 07:40:00,37.2,36.5,29.93,WSW,243,0.0,1.0,97,0.00,,,0.00,meteohub,2013-01-12 12:40:00,
2013-01-12 07:45:00,37.0,36.3,29.93,WSW,252,0.0,1.0,97,0.00,,,0.00,meteohub,2013-01-12 12:45:00,
2013-01-12 07:50:00,37.0,36.3,29.93,WSW,252,0.0,1.0,97,0.00,,,0.00,meteohub,2013-01-12 12:50:00,
2013-01-12 07:55:00,37.0,36.3,29.93,WSW,252,0.0,1.0,97,0.00,,,0.00,meteohub,2013-01-12 12:55:00,
2013-01-12 08:00:00,37.0,36.3,29.93,WSW,249,0.0,1.0,97,0.00,,,0.00,meteohub,2013-01-12 13:00:00,
2013-01-12 08:05:00,37.0,36.3,29.94,SW,224,0.0,1.0,97,0.00,,,0.00,meteohub,2013-01-12 13:05:00,
2013-01-12 08:10:00,37.0,36.3,29.94,SW,224,0.0,1.0,97,0.00,,,0.00,meteohub,2013-01-12 13:10:00,
2013-01-12 08:15:00,37.2,36.5,29.94,SW,225,0.0,1.0,97,0.00,,,0.00,meteohub,2013-01-12 13:15:00,
2013-01-12 08:20:00,37.4,36.7,29.94,SW,225,0.0,1.0,97,0.00,,,0.00,meteohub,2013-01-12 13:20:00,
2013-01-12 08:25:00,37.6,37.0,29.94,SW,225,0.0,1.0,98,0.00,,,0.00,meteohub,2013-01-12 13:25:00,
2013-01-12 08:30:00,37.4,36.7,29.94,SW,224,0.0,0.0,97,0.00,,,0.00,meteohub,2013-01-12 13:30:00,
2013-01-12 08:35:00,37.2,36.5,29.94,SW,225,0.0,0.0,97,0.00,,,0.00,meteohub,2013-01-12 13:35:00,
2013-01-12 08:40:00,37.2,36.5,29.94,SW,224,0.0,0.0,97,0.00,,,0.00,meteohub,2013-01-12 13:40:00,
2013-01-12 08:45:00,37.6,36.9,29.95,SW,228,0.0,0.0,97,0.00,,,0.00,meteohub,2013-01-12 13:45:00,
2013-01-12 08:50:00,37.8,37.0,29.95,SW,231,0.0,0.0,97,0.00,,,0.00,meteohub,2013-01-12 13:50:00,
2013-01-12 08:55:00,38.1,37.6,29.95,SW,231,0.0,0.0,98,0.00,,,0.00,meteohub,2013-01-12 13:55:00,
2013-01-12 09:00:00,38.5,37.9,29.95,SW,231,0.0,0.0,98,0.00,,,0.00,meteohub,2013-01-12 14:00:00,
2013-01-12 09:05:00,38.7,38.1,29.95,SW,228,0.0,0.0,98,0.00,,,0.00,meteohub,2013-01-12 14:05:00,
2013-01-12 09:10:00,39.0,38.5,29.96,SW,231,0.0,0.0,98,0.00,,,0.00,meteohub,2013-01-12 14:10:00,
2013-01-12 09:15:00,39.4,38.8,29.96,SW,224,0.0,1.0,98,0.00,,,0.00,meteohub,2013-01-12 14:15:00,
2013-01-12 09:20:00,39.6,39.0,29.96,SW,224,1.0,1.0,98,0.00,,,0.00,meteohub,2013-01-12 14:20:00,
2013-01-12 09:25:00,39.7,39.2,29.96,SW,224,0.0,1.0,98,0.00,,,0.00,meteohub,2013-01-12 14:25:00,
2013-01-12 09:30:00,40.1,39.6,29.95,SW,224,0.0,1.0,98,0.00,,,0.00,meteohub,2013-01-12 14:30:00,
2013-01-12 09:35:00,40.3,39.7,29.95,SW,224,0.0,1.0,98,0.00,,,0.00,meteohub,2013-01-12 14:35:00,
2013-01-12 09:40:00,40.5,39.9,29.95,WSW,238,1.0,1.0,98,0.00,,,0.00,meteohub,2013-01-12 14:40:00,
2013-01-12 09:45:00,40.8,40.3,29.95,WSW,238,0.0,1.0,98,0.00,,,0.00,meteohub,2013-01-12 14:45:00,
2013-01-12 09:50:00,40.8,40.1,29.95,SW,235,1.0,1.0,97,0.00,,,0.00,meteohub,2013-01-12 14:50:00,
2013-01-12 09:55:00,41.0,40.3,29.95,SW,218,1.0,1.0,97,0.00,,,0.00,meteohub,2013-01-12 14:55:00,
2013-01-12 10:00:00,41.2,40.5,29.95,SSW,208,0.0,2.0,97,0.00,,,0.00,meteohub,2013-01-12 15:00:00,
2013-01-12 10:05:00,42.1,41.5,29.95,SW,222,2.0,2.0,98,0.00,,,0.00,meteohub,2013-01-12 15:05:00,
2013-01-12 10:10:00,41.9,41.2,29.95,WSW,243,1.0,2.0,97,0.00,,,0.00,meteohub,2013-01-12 15:10:00,
2013-01-12 10:15:00,42.3,41.5,29.95,SW,218,2.0,2.0,97,0.00,,,0.00,meteohub,2013-01-12 15:15:00,
2013-01-12 10:20:00,42.3,41.5,29.95,SW,232,1.0,2.0,97,0.00,,,0.00,meteohub,2013-01-12 15:20:00,
2013-01-12 10:25:00,42.4,41.7,29.95,SW,233,0.0,2.0,97,0.00,,,0.00,meteohub,2013-01-12 15:25:00,
2013-01-12 10:30:00,43.0,42.3,29.95,SW,231,0.0,2.0,97,0.00,,,0.00,meteohub,2013-01-12 15:30:00,
2013-01-12 10:36:00,42.6,41.9,29.95,SW,219,0.0,1.0,97,0.00,,,0.00,meteohub,2013-01-12 15:36:00,
2013-01-12 10:41:00,43.0,42.3,29.94,SSW,208,2.0,2.0,97,0.00,,,0.00,meteohub,2013-01-12 15:41:00,
2013-01-12 10:46:00,43.3,42.6,29.94,SSW,211,1.0,2.0,97,0.00,,,0.00,meteohub,2013-01-12 15:46:00,
2013-01-12 10:51:00,44.4,43.9,29.94,NNW,347,0.0,2.0,98,0.00,,,0.00,meteohub,2013-01-12 15:51:00,
2013-01-12 10:56:00,45.0,44.4,29.94,WSW,256,1.0,2.0,98,0.00,,,0.00,meteohub,2013-01-12 15:56:00,
2013-01-12 11:01:00,44.8,44.2,29.94,WSW,242,0.0,2.0,98,0.00,,,0.00,meteohub,2013-01-12 16:01:00,
2013-01-12 11:06:00,44.8,44.2,29.94,WSW,248,0.0,2.0,98,0.00,,,0.00,meteohub,2013-01-12 16:06:00,
2013-01-12 11:11:00,45.1,44.6,29.94,WSW,249,1.0,3.0,98,0.00,,,0.00,meteohub,2013-01-12 16:11:00,
2013-01-12 11:16:00,45.7,45.1,29.94,WSW,245,1.0,3.0,98,0.00,,,0.00,meteohub,2013-01-12 16:16:00,
2013-01-12 11:21:00,45.9,45.3,29.94,SSW,212,2.0,3.0,98,0.00,,,0.00,meteohub,2013-01-12 16:21:00,
2013-01-12 11:26:00,46.4,45.9,29.94,WSW,239,0.0,2.0,98,0.00,,,0.00,meteohub,2013-01-12 16:26:00,
2013-01-12 11:31:00,46.8,46.2,29.94,SW,214,1.0,3.0,98,0.00,,,0.00,meteohub,2013-01-12 16:31:00,
2013-01-12 11:36:00,47.3,46.8,29.94,SW,235,3.0,3.0,98,0.00,,,0.00,meteohub,2013-01-12 16:36:00,
2013-01-12 11:41:00,47.5,46.9,29.93,SW,226,2.0,4.0,98,0.00,,,0.00,meteohub,2013-01-12 16:41:00,
2013-01-12 11:46:00,48.9,48.4,29.93,SW,235,0.0,4.0,98,0.00,,,0.00,meteohub,2013-01-12 16:46:00,
2013-01-12 11:51:00,49.3,48.7,29.93,South,190,1.0,3.0,98,0.00,,,0.00,meteohub,2013-01-12 16:51:00,
2013-01-12 11:56:00,49.8,49.3,29.93,SSW,206,0.0,3.0,98,0.00,,,0.00,meteohub,2013-01-12 16:56:00,
2013-01-12 12:01:00,51.3,50.7,29.93,North,1,0.0,2.0,98,0.00,,,0.00,meteohub,2013-01-12 17:01:00,
2013-01-12 12:06:00,52.5,52.0,29.93,WSW,255,1.0,2.0,98,0.00,,,0.00,meteohub,2013-01-12 17:06:00,
2013-01-12 12:11:00,53.8,53.2,29.93,SSW,211,0.0,2.0,98,0.00,,,0.00,meteohub,2013-01-12 17:11:00,
2013-01-12 12:16:00,56.1,55.8,29.92,SW,218,2.0,4.0,99,0.00,,,0.00,meteohub,2013-01-12 17:16:00,
2013-01-12 12:21:00,56.8,56.5,29.92,SW,217,3.0,4.0,99,0.00,,,0.00,meteohub,2013-01-12 17:21:00,
2013-01-12 12:26:00,57.9,57.6,29.92,SSW,195,0.0,5.0,99,0.00,,,0.00,meteohub,2013-01-12 17:26:00,
2013-01-12 12:31:00,57.7,57.4,29.91,West,259,1.0,5.0,99,0.00,,,0.00,meteohub,2013-01-12 17:31:00,
2013-01-12 12:36:00,57.9,57.6,29.91,South,190,1.0,5.0,99,0.00,,,0.00,meteohub,2013-01-12 17:36:00,
2013-01-12 12:41:00,57.9,57.4,29.91,SW,214,1.0,5.0,98,0.00,,,0.00,meteohub,2013-01-12 17:41:00,
2013-01-12 12:46:00,57.6,57.0,29.91,SW,233,2.0,5.0,98,0.00,,,0.00,meteohub,2013-01-12 17:46:00,
2013-01-12 12:51:00,57.6,57.0,29.91,WSW,239,1.0,5.0,98,0.00,,,0.00,meteohub,2013-01-12 17:51:00,
2013-01-12 12:56:00,58.3,57.7,29.90,SSW,212,4.0,4.0,98,0.00,,,0.00,meteohub,2013-01-12 17:56:00,
2013-01-12 13:01:00,58.8,57.7,29.90,WSW,242,0.0,5.0,96,0.00,,,0.00,meteohub,2013-01-12 18:01:00,
2013-01-12 13:06:00,59.2,57.4,29.89,SW,214,1.0,5.0,94,0.00,,,0.00,meteohub,2013-01-12 18:06:00,
2013-01-12 13:11:00,58.8,56.1,29.89,WSW,239,1.0,5.0,91,0.00,,,0.00,meteohub,2013-01-12 18:11:00,
2013-01-12 13:16:00,58.5,56.1,29.89,WSW,240,1.0,5.0,92,0.00,,,0.00,meteohub,2013-01-12 18:16:00,
2013-01-12 13:21:00,58.8,57.0,29.90,SSW,208,3.0,4.0,94,0.00,,,0.00,meteohub,2013-01-12 18:21:00,
2013-01-12 13:26:00,59.7,57.0,29.90,WSW,239,3.0,6.0,91,0.00,,,0.00,meteohub,2013-01-12 18:26:00,
2013-01-12 13:31:00,60.1,55.9,29.89,WSW,240,1.0,6.0,86,0.00,,,0.00,meteohub,2013-01-12 18:31:00,
2013-01-12 13:36:00,59.4,55.4,29.89,WSW,250,2.0,5.0,87,0.00,,,0.00,meteohub,2013-01-12 18:36:00,
2013-01-12 13:41:00,59.9,55.9,29.90,WSW,239,2.0,5.0,87,0.00,,,0.00,meteohub,2013-01-12 18:41:00,
2013-01-12 13:46:00,58.8,54.7,29.89,SW,219,0.0,5.0,86,0.00,,,0.00,meteohub,2013-01-12 18:46:00,
2013-01-12 13:51:00,58.1,54.9,29.89,SW,231,1.0,5.0,89,0.00,,,0.00,meteohub,2013-01-12 18:51:00,
2013-01-12 13:56:00,57.6,54.7,29.89,SW,214,1.0,4.0,90,0.00,,,0.00,meteohub,2013-01-12 18:56:00,
2013-01-12 14:01:00,57.2,53.4,29.89,SSW,211,3.0,4.0,87,0.00,,,0.00,meteohub,2013-01-12 19:01:00,
2013-01-12 14:06:00,56.8,53.1,29.89,SW,222,1.0,4.0,87,0.00,,,0.00,meteohub,2013-01-12 19:06:00,
2013-01-12 14:11:00,56.8,54.0,29.89,WSW,243,2.0,4.0,90,0.00,,,0.00,meteohub,2013-01-12 19:11:00,
2013-01-12 14:16:00,57.2,54.0,29.89,SSW,211,1.0,4.0,89,0.00,,,0.00,meteohub,2013-01-12 19:16:00,
2013-01-12 14:22:00,56.8,53.2,29.89,WSW,246,2.0,3.0,88,0.00,,,0.00,meteohub,2013-01-12 19:22:00,
2013-01-12 14:27:00,57.6,55.2,29.89,WSW,243,1.0,3.0,92,0.00,,,0.00,meteohub,2013-01-12 19:27:00,
2013-01-12 14:32:00,57.0,52.5,29.89,SW,229,2.0,3.0,85,0.00,,,0.00,meteohub,2013-01-12 19:32:00,
2013-01-12 14:37:00,56.8,53.6,29.89,SW,222,2.0,3.0,89,0.00,,,0.00,meteohub,2013-01-12 19:37:00,
2013-01-12 14:42:00,57.6,55.0,29.89,SW,217,0.0,3.0,91,0.00,,,0.00,meteohub,2013-01-12 19:42:00,
2013-01-12 14:47:00,57.9,55.0,29.88,WSW,248,1.0,4.0,90,0.00,,,0.00,meteohub,2013-01-12 19:47:00,
2013-01-12 14:52:00,58.6,55.9,29.88,SSW,205,2.0,4.0,91,0.00,,,0.00,meteohub,2013-01-12 19:52:00,
2013-01-12 14:57:00,57.6,53.8,29.87,SW,214,1.0,4.0,87,0.00,,,0.00,meteohub,2013-01-12 19:57:00,
2013-01-12 15:02:00,58.3,56.3,29.88,WSW,242,0.0,3.0,93,0.00,,,0.00,meteohub,2013-01-12 20:02:00,
2013-01-12 15:07:00,58.5,55.2,29.88,SW,221,2.0,3.0,89,0.00,,,0.00,meteohub,2013-01-12 20:07:00,
2013-01-12 15:12:00,57.6,53.4,29.88,SW,235,2.0,3.0,86,0.00,,,0.00,meteohub,2013-01-12 20:12:00,
2013-01-12 15:17:00,57.2,54.0,29.88,SSW,211,1.0,3.0,89,0.00,,,0.00,meteohub,2013-01-12 20:17:00,
2013-01-12 15:22:00,57.0,53.8,29.87,WSW,240,3.0,3.0,89,0.00,,,0.00,meteohub,2013-01-12 20:22:00,
2013-01-12 15:27:00,56.7,54.1,29.87,WSW,238,1.0,3.0,91,0.00,,,0.00,meteohub,2013-01-12 20:27:00,
2013-01-12 15:32:00,57.0,54.5,29.87,WSW,237,2.0,3.0,91,0.00,,,0.00,meteohub,2013-01-12 20:32:00,
2013-01-12 15:37:00,56.7,53.4,29.87,SW,219,2.0,3.0,89,0.00,,,0.00,meteohub,2013-01-12 20:37:00,
2013-01-12 15:42:00,56.5,54.0,29.87,WSW,238,2.0,2.0,91,0.00,,,0.00,meteohub,2013-01-12 20:42:00,
2013-01-12 15:47:00,56.1,53.2,29.86,SSW,212,2.0,2.0,90,0.00,,,0.00,meteohub,2013-01-12 20:47:00,
2013-01-12 15:52:00,55.9,53.6,29.87,SW,218,1.0,2.0,92,0.00,,,0.00,meteohub,2013-01-12 20:52:00,
2013-01-12 15:57:00,56.1,53.8,29.87,SW,232,2.0,2.0,92,0.00,,,0.00,meteohub,2013-01-12 20:57:00,
2013-01-12 16:02:00,56.5,54.1,29.87,SW,231,2.0,2.0,92,0.00,,,0.00,meteohub,2013-01-12 21:02:00,
2013-01-12 16:07:00,56.7,54.3,29.86,SW,231,1.0,3.0,92,0.00,,,0.00,meteohub,2013-01-12 21:07:00,
2013-01-12 16:12:00,56.1,53.2,29.86,SW,215,1.0,3.0,90,0.00,,,0.00,meteohub,2013-01-12 21:12:00,
2013-01-12 16:17:00,55.2,52.3,29.86,SW,215,1.0,3.0,90,0.00,,,0.00,meteohub,2013-01-12 21:17:00,
2013-01-12 16:22:00,55.8,54.1,29.85,SW,228,1.0,2.0,94,0.00,,,0.00,meteohub,2013-01-12 21:22:00,
2013-01-12 16:27:00,55.0,52.2,29.85,SW,228,1.0,2.0,90,0.00,,,0.00,meteohub,2013-01-12 21:27:00,
2013-01-12 16:32:00,55.6,54.1,29.85,WSW,238,2.0,2.0,95,0.00,,,0.00,meteohub,2013-01-12 21:32:00,
2013-01-12 16:37:00,55.6,53.2,29.84,WSW,243,2.0,2.0,92,0.00,,,0.00,meteohub,2013-01-12 21:37:00,
2013-01-12 16:42:00,55.2,52.9,29.84,SSW,211,1.0,2.0,92,0.00,,,0.00,meteohub,2013-01-12 21:42:00,
2013-01-12 16:47:00,55.0,53.4,29.84,WSW,239,1.0,2.0,94,0.00,,,0.00,meteohub,2013-01-12 21:47:00,
2013-01-12 16:52:00,55.4,53.8,29.84,South,178,1.0,2.0,94,0.00,,,0.00,meteohub,2013-01-12 21:52:00,
2013-01-12 16:57:00,55.8,54.1,29.84,SSW,200,1.0,3.0,94,0.00,,,0.00,meteohub,2013-01-12 21:57:00,
2013-01-12 17:02:00,55.6,53.6,29.84,SE,145,0.0,3.0,93,0.00,,,0.00,meteohub,2013-01-12 22:02:00,
2013-01-12 17:07:00,55.8,54.3,29.84,SW,224,2.0,3.0,95,0.00,,,0.00,meteohub,2013-01-12 22:07:00,
2013-01-12 17:13:00,56.3,54.9,29.84,SW,232,0.0,3.0,95,0.00,,,0.00,meteohub,2013-01-12 22:13:00,
2013-01-12 17:17:00,55.9,53.4,29.85,SSW,208,1.0,2.0,91,0.00,,,0.00,meteohub,2013-01-12 22:17:00,
2013-01-12 17:23:00,55.0,52.7,29.84,SSW,209,1.0,2.0,92,0.00,,,0.00,meteohub,2013-01-12 22:23:00,
2013-01-12 17:28:00,54.9,52.9,29.84,SW,226,1.0,2.0,93,0.00,,,0.00,meteohub,2013-01-12 22:28:00,
2013-01-12 17:33:00,54.9,53.2,29.84,WSW,245,2.0,2.0,94,0.00,,,0.00,meteohub,2013-01-12 22:33:00,
2013-01-12 17:38:00,54.9,53.2,29.83,SW,218,2.0,3.0,94,0.00,,,0.00,meteohub,2013-01-12 22:38:00,
2013-01-12 17:43:00,54.7,53.1,29.83,SW,225,1.0,3.0,94,0.00,,,0.00,meteohub,2013-01-12 22:43:00,
2013-01-12 17:48:00,54.3,52.7,29.83,SW,232,0.0,3.0,94,0.00,,,0.00,meteohub,2013-01-12 22:48:00,
2013-01-12 17:53:00,54.3,52.7,29.83,WSW,242,1.0,3.0,94,0.00,,,0.00,meteohub,2013-01-12 22:53:00,
2013-01-12 17:58:00,54.1,52.5,29.84,SSW,197,1.0,2.0,94,0.00,,,0.00,meteohub,2013-01-12 22:58:00,
2013-01-12 18:03:00,54.0,52.3,29.83,South,178,2.0,2.0,94,0.00,,,0.00,meteohub,2013-01-12 23:03:00,
2013-01-12 18:08:00,54.9,54.0,29.83,SE,145,1.0,2.0,97,0.00,,,0.00,meteohub,2013-01-12 23:08:00,
2013-01-12 18:13:00,55.4,54.5,29.83,SE,131,0.0,3.0,97,0.01,,,0.01,meteohub,2013-01-12 23:13:00,
2013-01-12 18:18:00,56.3,55.4,29.83,SSW,212,4.0,4.0,97,0.01,,,0.01,meteohub,2013-01-12 23:18:00,
2013-01-12 18:23:00,57.0,56.1,29.83,South,191,3.0,5.0,97,0.01,,,0.01,meteohub,2013-01-12 23:23:00,
2013-01-12 18:28:00,56.8,55.8,29.82,SSE,167,2.0,6.0,96,0.01,,,0.01,meteohub,2013-01-12 23:28:00,
2013-01-12 18:33:00,56.7,55.6,29.82,SSW,212,0.0,6.0,96,0.01,,,0.01,meteohub,2013-01-12 23:33:00,
2013-01-12 18:38:00,55.8,54.3,29.81,South,183,2.0,4.0,95,0.01,,,0.01,meteohub,2013-01-12 23:38:00,
2013-01-12 18:43:00,55.2,54.1,29.81,SW,217,2.0,3.0,96,0.02,,,0.02,meteohub,2013-01-12 23:43:00,
2013-01-12 18:48:00,55.6,54.7,29.80,SW,224,1.0,3.0,97,0.02,,,0.02,meteohub,2013-01-12 23:48:00,
2013-01-12 18:53:00,55.2,54.3,29.79,SW,228,2.0,3.0,97,0.03,,,0.03,meteohub,2013-01-12 23:53:00,
2013-01-12 18:58:00,56.7,56.1,29.80,WSW,249,4.0,4.0,98,0.03,,,0.03,meteohub,2013-01-12 23:58:00,
2013-01-12 19:03:00,57.4,56.8,29.80,West,262,2.0,4.0,98,0.03,,,0.03,meteohub,2013-01-13 00:03:00,
2013-01-12 19:08:00,55.8,54.9,29.80,SW,215,1.0,4.0,97,0.03,,,0.03,meteohub,2013-01-13 00:08:00,
2013-01-12 19:13:00,55.0,54.0,29.80,SSW,212,1.0,4.0,96,0.02,,,0.03,meteohub,2013-01-13 00:13:00,
2013-01-12 19:18:00,54.7,53.6,29.79,SSW,204,1.0,4.0,96,0.02,,,0.03,meteohub,2013-01-13 00:18:00,
2013-01-12 19:23:00,54.9,54.0,29.78,SW,219,1.0,2.0,97,0.02,,,0.03,meteohub,2013-01-13 00:23:00,
2013-01-12 19:28:00,54.7,53.8,29.78,SSW,211,1.0,2.0,97,0.02,,,0.03,meteohub,2013-01-13 00:28:00,
2013-01-12 19:33:00,54.7,53.8,29.78,SW,219,1.0,2.0,97,0.02,,,0.03,meteohub,2013-01-13 00:33:00,
2013-01-12 19:38:00,55.0,54.1,29.77,SW,219,1.0,2.0,97,0.01,,,0.03,meteohub,2013-01-13 00:38:00,
2013-01-12 19:43:00,54.9,54.0,29.77,SSW,198,1.0,2.0,97,0.01,,,0.03,meteohub,2013-01-13 00:43:00,
2013-01-12 19:48:00,55.2,54.7,29.77,WSW,244,2.0,2.0,98,0.01,,,0.03,meteohub,2013-01-13 00:48:00,
2013-01-12 19:53:00,55.8,55.2,29.77,WSW,238,2.0,2.0,98,0.00,,,0.03,meteohub,2013-01-13 00:53:00,
2013-01-12 19:58:00,55.4,54.9,29.77,SW,217,0.0,3.0,98,0.00,,,0.03,meteohub,2013-01-13 00:58:00,
2013-01-12 20:03:00,55.8,55.2,29.77,SW,222,0.0,3.0,98,0.00,,,0.03,meteohub,2013-01-13 01:03:00,
2013-01-12 20:08:00,55.2,54.3,29.77,SW,222,1.0,3.0,97,0.00,,,0.03,meteohub,2013-01-13 01:08:00,
2013-01-12 20:13:00,54.9,54.0,29.77,SW,236,1.0,3.0,97,0.00,,,0.03,meteohub,2013-01-13 01:13:00,
2013-01-12 20:18:00,55.2,54.7,29.78,West,264,2.0,3.0,98,0.00,,,0.03,meteohub,2013-01-13 01:18:00,
2013-01-12 20:23:00,56.8,56.3,29.79,SW,232,4.0,4.0,98,0.00,,,0.03,meteohub,2013-01-13 01:23:00,
2013-01-12 20:28:00,56.7,56.1,29.78,SSE,156,0.0,5.0,98,0.00,,,0.03,meteohub,2013-01-13 01:28:00,
2013-01-12 20:33:00,56.8,56.3,29.77,ENE,75,4.0,5.0,98,0.00,,,0.03,meteohub,2013-01-13 01:33:00,
2013-01-12 20:38:00,59.5,59.2,29.76,ESE,119,2.0,5.0,99,0.00,,,0.03,meteohub,2013-01-13 01:38:00,
2013-01-12 20:43:00,60.4,60.1,29.76,SSE,148,2.0,11.0,99,0.01,,,0.04,meteohub,2013-01-13 01:43:00,
2013-01-12 20:48:00,60.8,60.4,29.76,NNE,20,2.0,11.0,99,0.01,,,0.04,meteohub,2013-01-13 01:48:00,
2013-01-12 20:53:00,61.2,60.8,29.75,ENE,77,4.0,11.0,99,0.02,,,0.05,meteohub,2013-01-13 01:53:00,
2013-01-12 20:58:00,61.0,60.6,29.76,East,85,1.0,8.0,99,0.02,,,0.05,meteohub,2013-01-13 01:58:00,
2013-01-12 21:03:00,61.2,60.8,29.75,ESE,113,3.0,8.0,99,0.02,,,0.05,meteohub,2013-01-13 02:03:00,
2013-01-12 21:08:00,61.3,61.0,29.75,ENE,72,3.0,7.0,99,0.03,,,0.06,meteohub,2013-01-13 02:08:00,
2013-01-12 21:13:00,61.2,60.8,29.75,NNE,26,3.0,6.0,99,0.03,,,0.06,meteohub,2013-01-13 02:13:00,
2013-01-12 21:18:00,61.5,61.2,29.75,NW,326,2.0,6.0,99,0.03,,,0.06,meteohub,2013-01-13 02:18:00,
2013-01-12 21:23:00,62.1,61.7,29.75,East,94,4.0,7.0,99,0.03,,,0.06,meteohub,2013-01-13 02:23:00,
2013-01-12 21:29:00,62.1,61.7,29.75,SE,129,3.0,10.0,99,0.03,,,0.06,meteohub,2013-01-13 02:29:00,
2013-01-12 21:34:00,62.1,61.7,29.75,East,95,2.0,10.0,99,0.03,,,0.06,meteohub,2013-01-13 02:34:00,
2013-01-12 21:39:00,62.1,61.7,29.74,North,357,2.0,6.0,99,0.03,,,0.06,meteohub,2013-01-13 02:39:00,
2013-01-12 21:44:00,62.2,61.9,29.74,WNW,302,1.0,6.0,99,0.02,,,0.06,meteohub,2013-01-13 02:44:00,
2013-01-12 21:49:00,61.9,61.3,29.74,WSW,240,2.0,6.0,98,0.02,,,0.06,meteohub,2013-01-13 02:49:00,
2013-01-12 21:54:00,61.7,61.2,29.73,ESE,110,1.0,6.0,98,0.01,,,0.06,meteohub,2013-01-13 02:54:00,
2013-01-12 21:59:00,62.1,61.5,29.73,SE,133,1.0,6.0,98,0.01,,,0.06,meteohub,2013-01-13 02:59:00,
2013-01-12 22:04:00,62.4,61.9,29.72,ESE,110,1.0,5.0,98,0.00,,,0.06,meteohub,2013-01-13 03:04:00,
2013-01-12 22:09:00,62.8,62.2,29.73,SSW,195,2.0,5.0,98,0.00,,,0.06,meteohub,2013-01-13 03:09:00,
2013-01-12 22:14:00,62.2,61.7,29.72,ESE,114,3.0,6.0,98,0.00,,,0.06,meteohub,2013-01-13 03:14:00,
2013-01-12 22:19:00,62.8,62.2,29.72,East,89,2.0,6.0,98,0.00,,,0.06,meteohub,2013-01-13 03:19:00,
2013-01-12 22:24:00,63.0,62.4,29.72,SW,233,0.0,6.0,98,0.00,,,0.06,meteohub,2013-01-13 03:24:00,
2013-01-12 22:29:00,63.0,62.1,29.72,SSE,165,2.0,7.0,97,0.00,,,0.06,meteohub,2013-01-13 03:29:00,
2013-01-12 22:34:00,62.8,61.9,29.73,SSW,203,1.0,7.0,97,0.00,,,0.06,meteohub,2013-01-13 03:34:00,
2013-01-12 22:39:00,62.8,61.9,29.73,East,79,2.0,4.0,97,0.00,,,0.06,meteohub,2013-01-13 03:39:00,
2013-01-12 22:44:00,63.1,62.2,29.72,SW,231,3.0,8.0,97,0.00,,,0.06,meteohub,2013-01-13 03:44:00,
2013-01-12 22:49:00,63.7,62.8,29.72,South,172,2.0,8.0,97,0.00,,,0.06,meteohub,2013-01-13 03:49:00,
2013-01-12 22:54:00,63.7,62.2,29.72,SE,127,2.0,8.0,95,0.00,,,0.06,meteohub,2013-01-13 03:54:00,
2013-01-12 22:59:00,63.9,62.4,29.73,NNW,335,1.0,9.0,95,0.00,,,0.06,meteohub,2013-01-13 03:59:00,
2013-01-12 23:04:00,64.2,62.4,29.73,SSW,197,3.0,9.0,94,0.00,,,0.06,meteohub,2013-01-13 04:04:00,
2013-01-12 23:09:00,64.6,62.4,29.72,SSE,160,3.0,8.0,93,0.00,,,0.06,meteohub,2013-01-13 04:09:00,
2013-01-12 23:14:00,64.4,62.4,29.72,NW,316,1.0,8.0,93,0.00,,,0.06,meteohub,2013-01-13 04:14:00,
2013-01-12 23:19:00,64.8,62.4,29.72,SW,217,0.0,8.0,92,0.00,,,0.06,meteohub,2013-01-13 04:19:00,
2013-01-12 23:24:00,64.9,62.2,29.72,West,264,0.0,7.0,91,0.00,,,0.06,meteohub,2013-01-13 04:24:00,
2013-01-12 23:29:00,65.3,62.6,29.71,SSE,165,5.0,9.0,91,0.00,,,0.06,meteohub,2013-01-13 04:29:00,
2013-01-12 23:34:00,65.5,62.2,29.71,SE,124,1.0,17.0,89,0.00,,,0.06,meteohub,2013-01-13 04:34:00,
2013-01-12 23:39:00,65.5,62.2,29.71,East,88,4.0,17.0,89,0.00,,,0.06,meteohub,2013-01-13 04:39:00,
2013-01-12 23:45:00,65.5,62.2,29.70,SSW,193,5.0,17.0,89,0.00,,,0.06,meteohub,2013-01-13 04:45:00,
2013-01-12 23:50:00,65.3,62.1,29.70,NW,322,1.0,13.0,89,0.00,,,0.06,meteohub,2013-01-13 04:50:00,
2013-01-12 23:55:00,65.1,62.1,29.70,WSW,257,1.0,13.0,90,0.00,,,0.06,meteohub,2013-01-13 04:55:00,